Theta_e
317 317 316 318 318 319 320 320 320 320 321 321 320 319 319 318 318 318 316 317 317 316 315 315 314 314 315 315 317 319 319 318 315 313 314 314 314 313 312 313 315 315 314 315 315 316 317 317 315 314 318 319 317 319 319 321 330 342 342 336 325 322 318 318 322 320 320 317 316 315 314 319 316 309 307 306 305 304 304 302 302 302 301 301 301 300 299 299
315 315 315 316 317 318 319 320 321 322 322 322 321 320 320 319 318 318 318 317 317 317 316 315 315 314 315 316 317 318 318 319 317 314 315 314 312 312 312 313 315 315 314 314 316 316 319 320 314 315 325 322 317 320 322 319 327 340 337 326 324 327 319 317 323 320 316 316 317 316 314 316 317 311 309 311 307 303 306 303 301 302 301 300 300 299 298 297
314 314 314 315 316 317 318 319 321 322 322 322 321 321 320 320 319 318 318 317 316 317 316 316 315 315 315 316 318 317 317 320 319 316 315 313 312 312 312 313 315 315 314 314 315 314 316 318 311 316 327 323 319 323 325 321 321 328 328 323 326 330 320 314 318 318 316 316 318 316 312 313 314 310 310 312 308 306 308 304 302 302 301 301 300 298 298 297
313 314 314 315 315 315 316 317 319 320 321 322 322 321 320 319 319 318 318 317 317 317 317 316 315 315 315 317 317 315 316 321 320 317 315 313 312 312 312 314 315 315 314 313 314 314 314 313 311 319 324 322 326 324 321 321 317 317 320 322 324 323 318 315 316 317 316 315 319 317 312 311 309 308 311 312 310 309 307 304 304 303 300 301 300 298 298 297
313 314 314 315 315 315 315 316 316 318 319 320 320 320 320 319 319 319 318 317 317 316 316 317 316 316 315 316 317 315 317 322 319 316 314 312 311 311 312 312 315 315 313 313 313 313 313 311 316 327 324 320 327 325 319 318 316 314 316 321 324 319 314 315 316 316 315 313 316 315 311 310 309 309 311 311 314 314 309 305 304 302 300 300 300 297 297 297
313 314 314 315 316 316 316 316 316 316 317 317 318 319 319 319 318 319 318 317 317 317 316 317 316 316 316 316 316 315 318 321 318 315 314 312 312 312 312 311 313 314 313 313 312 312 316 316 320 328 325 321 320 319 318 317 316 315 315 317 321 319 314 316 317 316 315 313 314 313 312 311 311 311 309 309 314 311 306 305 302 300 299 299 298 297 298 297
312 312 314 315 315 316 316 316 316 315 316 316 316 317 317 318 317 318 318 317 317 317 315 316 317 316 316 315 316 320 321 321 316 315 315 313 312 312 312 311 311 313 314 312 311 316 321 322 321 321 322 322 317 316 317 317 317 316 318 316 316 315 314 316 315 316 316 314 314 312 310 312 314 313 308 308 309 304 301 301 300 298 298 297 297 297 297 297
310 310 312 313 315 316 316 317 316 316 316 316 316 316 316 317 316 318 318 316 316 316 315 315 317 317 317 316 321 327 326 322 316 314 315 313 312 312 312 311 311 313 313 312 311 316 321 321 319 316 319 319 315 315 315 316 318 318 319 317 314 314 315 316 314 315 316 312 312 311 311 313 313 310 309 308 305 300 300 299 298 297 297 297 298 298 295 295
309 309 309 311 313 315 316 316 316 316 316 316 316 316 316 316 316 317 318 316 316 316 315 315 316 317 317 317 319 324 323 319 315 314 314 313 313 313 312 311 310 312 313 313 311 312 317 318 316 315 316 316 313 315 315 315 316 316 318 317 315 314 314 314 313 315 315 312 311 310 314 315 309 308 309 306 302 299 299 299 299 298 299 299 299 298 295 294
309 308 308 309 310 312 314 315 316 316 316 315 315 315 315 315 316 317 317 316 315 315 314 315 316 316 316 315 316 320 319 315 313 313 313 313 313 313 312 310 310 311 312 313 311 312 314 315 315 314 317 317 313 313 314 313 312 314 316 315 314 314 314 313 312 314 313 310 311 311 314 313 307 309 312 305 300 300 299 300 299 299 299 299 299 298 295 294
309 309 309 308 309 310 312 314 315 315 316 315 315 315 315 315 315 317 317 315 315 315 314 315 316 316 316 316 320 321 317 313 312 312 312 312 313 312 312 310 310 311 311 313 312 311 313 313 312 312 315 315 314 313 312 312 312 312 313 314 316 317 316 313 311 312 311 309 313 315 313 310 306 311 315 305 299 300 299 300 299 298 299 298 298 298 295 294
310 309 309 309 309 309 310 313 314 315 315 314 314 314 314 314 315 316 316 315 315 315 314 315 315 316 316 317 323 322 316 314 311 310 311 311 312 313 312 310 310 310 311 312 312 311 311 312 312 313 313 313 314 314 312 311 311 313 313 313 317 320 318 312 311 311 310 310 314 315 312 311 311 312 312 303 298 299 299 299 298 298 298 297 298 298 296 295
311 310 310 309 309 309 310 311 313 314 314 314 314 313 313 313 313 316 316 315 315 314 315 315 315 315 315 318 321 317 314 313 310 310 310 310 312 314 312 310 311 311 311 312 311 310 310 311 311 313 313 314 316 312 312 313 312 313 311 313 319 321 320 312 311 311 309 312 313 312 312 315 316 312 306 300 298 299 299 298 297 297 297 297 297 298 297 295
312 311 311 310 310 309 310 310 312 313 314 314 313 312 312 312 314 316 315 315 314 314 316 315 315 315 316 318 316 313 314 312 310 311 310 310 312 315 312 310 311 311 311 312 310 310 311 311 310 312 312 312 312 308 313 320 318 314 311 319 323 318 324 321 313 313 310 312 312 310 313 314 316 314 304 299 299 299 299 298 297 297 297 297 297 297 298 296
312 312 311 310 310 310 309 310 311 313 313 313 312 312 311 311 315 315 314 315 314 315 316 315 315 317 319 319 314 313 314 312 312 312 311 311 310 312 312 309 312 312 312 311 311 311 310 311 312 315 314 310 313 316 321 326 326 321 314 324 327 316 324 326 313 313 312 311 310 310 315 313 314 314 304 299 299 299 300 298 297 297 296 296 296 296 298 297
312 312 311 311 311 310 310 310 310 313 313 312 313 312 311 313 315 314 314 315 314 315 316 317 317 317 320 319 314 313 313 313 314 314 312 312 309 311 310 310 313 312 312 311 310 311 310 314 314 314 314 312 321 330 328 327 330 328 318 320 328 319 319 319 312 313 313 311 311 311 315 314 313 311 302 299 299 299 300 298 297 297 296 296 296 296 297 297
312 312 312 311 311 310 310 310 311 313 313 313 313 311 311 314 314 313 315 314 315 316 317 319 317 316 317 316 315 316 314 313 315 315 313 312 311 310 310 311 311 310 312 310 310 312 310 313 312 312 318 315 319 330 327 328 332 331 324 319 323 319 314 315 313 312 310 310 312 312 312 311 312 310 303 300 299 299 300 299 298 297 296 296 296 297 297 297
313 312 312 312 311 311 311 310 312 314 315 314 313 313 313 314 313 314 316 314 315 316 316 318 315 314 314 314 316 317 314 314 316 315 314 313 311 310 310 310 308 310 315 314 313 315 313 317 319 325 333 323 320 329 326 328 327 321 321 319 318 316 312 314 313 311 310 310 312 312 312 311 310 310 305 300 299 299 300 299 298 297 296 296 296 297 297 297
313 313 312 312 311 311 311 311 312 314 316 315 313 314 313 313 315 316 314 312 315 315 316 320 318 314 314 316 316 314 314 315 314 314 313 313 310 310 312 310 311 314 318 322 319 317 319 327 329 329 334 329 325 325 322 327 324 314 315 316 314 314 312 311 311 310 309 309 311 310 310 310 309 310 308 302 300 299 299 299 299 297 296 296 296 296 297 297
314 313 313 312 312 311 311 312 313 315 315 315 314 313 315 319 320 322 319 315 314 313 315 321 319 316 314 317 316 314 315 314 313 314 312 312 309 310 312 311 318 321 320 327 322 317 323 332 330 325 328 331 328 321 317 320 318 311 312 314 312 313 312 309 310 310 308 309 312 310 309 310 309 309 309 304 301 300 299 300 299 297 296 296 296 296 296 297
313 313 313 312 312 312 312 312 314 315 314 314 313 312 314 315 315 317 318 319 313 306 312 316 313 314 313 314 315 314 314 314 312 312 311 311 309 311 313 313 319 323 321 322 320 321 327 329 328 331 329 326 324 318 313 313 312 310 312 314 313 312 312 309 309 309 307 309 313 312 310 310 309 308 308 306 302 301 300 300 299 298 297 296 296 296 296 296
312 313 312 312 312 312 312 313 314 314 313 313 310 308 308 309 312 310 310 318 316 307 311 313 311 316 314 312 314 312 313 316 314 314 311 309 310 312 316 316 319 323 320 317 322 330 331 328 331 331 323 316 314 312 311 311 311 311 312 313 314 313 313 313 311 310 309 308 312 313 310 309 309 308 308 307 304 302 301 300 300 299 297 297 296 296 296 296
312 312 312 313 312 312 313 314 313 312 313 312 308 306 307 309 312 310 309 317 320 315 317 319 318 320 318 313 313 312 313 316 316 315 310 308 312 312 314 318 320 322 318 317 327 329 327 331 330 321 314 312 312 312 312 310 311 313 312 313 316 314 314 317 315 314 312 310 311 311 309 307 307 308 308 307 306 304 303 301 301 300 298 297 297 297 296 296
311 311 311 312 312 312 314 314 312 311 313 311 307 306 307 309 310 311 314 317 319 319 318 318 318 321 321 313 311 313 314 314 314 312 308 309 314 312 314 319 320 321 319 323 330 326 325 324 316 313 313 312 314 314 312 311 315 319 316 314 316 315 314 315 314 313 313 315 312 308 309 311 309 307 308 307 304 303 303 302 301 300 299 298 298 297 296 296
312 311 311 311 311 314 314 313 311 309 313 313 309 306 307 310 311 311 315 316 316 318 315 313 316 320 317 311 311 313 312 314 313 309 305 308 313 311 312 314 316 323 322 319 320 322 324 315 308 313 314 312 313 316 318 315 316 323 321 315 315 315 314 314 314 312 314 318 313 308 313 318 313 309 309 308 306 304 302 302 301 300 299 298 298 297 296 296
312 311 311 311 312 314 314 314 312 309 313 314 311 307 306 310 310 310 317 317 315 319 317 314 316 317 313 312 313 312 315 316 309 306 306 306 309 310 313 313 313 320 321 316 316 319 317 309 310 317 317 315 314 316 321 317 315 321 320 316 316 315 313 312 312 312 316 318 310 308 314 316 312 311 311 310 310 308 304 302 301 300 299 298 297 297 296 295
311 312 312 311 311 314 315 314 311 311 315 316 311 306 305 309 309 308 314 313 313 320 322 317 314 315 314 312 311 312 319 317 307 305 306 306 307 308 315 317 313 314 313 315 320 320 313 310 313 316 317 318 315 319 322 315 318 323 316 314 315 312 312 312 309 310 314 312 308 309 309 309 309 310 310 309 309 308 305 303 301 299 298 298 297 297 295 294
311 312 313 311 311 314 315 311 307 309 315 315 309 305 307 309 308 312 312 306 312 321 323 319 314 312 313 310 310 314 314 313 312 308 304 305 307 308 315 319 321 319 312 315 325 321 314 315 317 316 315 316 318 326 322 314 319 321 311 309 310 308 309 309 307 309 310 307 310 311 307 310 313 311 309 306 307 309 308 306 303 299 298 297 297 296 295 294
311 313 313 311 311 313 314 310 305 308 313 311 306 305 307 306 308 315 312 306 315 322 318 317 313 312 314 311 312 315 312 312 314 310 305 304 306 309 312 315 321 320 310 314 323 320 313 313 316 318 317 317 321 322 315 313 316 314 309 310 312 313 312 309 308 310 311 310 313 312 309 313 318 316 312 308 309 312 310 307 304 301 299 297 297 296 294 293
312 314 313 312 311 313 314 310 307 309 310 308 305 305 308 311 314 313 309 309 316 320 314 314 315 315 316 315 315 314 313 314 311 308 308 307 307 309 307 308 314 317 317 318 320 318 312 307 309 314 315 318 319 312 306 310 311 308 311 315 316 316 313 311 310 311 314 316 317 314 310 313 318 317 315 314 317 317 313 311 307 302 299 297 296 295 294 293
313 314 313 312 312 313 314 311 309 309 307 305 306 307 310 319 322 315 312 312 311 315 316 315 316 315 317 320 321 316 313 315 311 309 311 308 310 312 309 310 315 320 327 325 319 318 313 308 311 313 311 312 315 311 306 308 309 310 315 317 318 320 317 316 314 313 317 323 320 312 307 309 315 316 313 314 315 313 312 313 312 307 300 297 296 295 293 292
313 315 313 313 312 312 313 312 310 309 306 304 307 312 315 317 317 315 317 315 309 314 321 320 317 317 318 320 322 318 315 317 312 310 315 314 312 315 315 320 321 321 327 326 322 321 317 314 313 310 308 309 315 315 310 310 312 312 314 318 322 324 324 324 319 316 320 322 313 304 306 310 311 312 311 311 312 309 308 308 309 308 302 297 296 294 293 292
312 314 314 314 312 312 313 313 312 310 305 305 310 318 319 315 313 314 317 316 311 314 320 322 320 319 319 319 323 320 316 318 314 310 316 315 313 316 319 321 320 316 319 321 321 322 322 319 312 309 310 310 314 315 314 317 314 310 313 321 326 326 326 327 323 320 321 320 308 300 307 312 311 313 311 309 310 309 306 304 305 305 302 298 296 294 293 291
310 312 314 314 311 312 313 313 314 312 306 307 315 321 319 316 315 315 315 314 313 316 320 321 319 318 318 321 326 322 317 319 316 311 315 314 314 320 320 315 315 318 321 319 320 323 322 321 316 314 314 311 309 312 319 322 314 308 312 318 322 326 327 326 326 324 320 319 310 302 309 317 316 315 312 308 307 305 303 302 301 302 301 298 296 294 292 291
310 311 313 314 312 312 312 312 315 313 307 308 315 319 316 314 315 316 318 317 316 318 319 320 320 318 320 323 324 321 317 318 316 313 316 316 318 324 324 318 316 321 324 319 321 321 318 320 318 310 308 308 308 310 314 319 316 309 309 313 318 322 323 321 321 319 314 314 312 307 311 315 311 309 308 306 303 299 299 299 298 300 300 297 295 293 291 290
311 311 313 314 313 313 312 312 315 313 307 307 313 316 314 314 317 318 318 317 319 323 320 319 321 321 322 326 325 320 315 315 316 316 317 317 318 320 324 324 318 316 318 317 321 321 317 321 314 305 306 305 304 306 308 315 318 310 308 314 315 312 316 319 317 312 309 312 315 313 312 312 312 311 306 302 301 299 298 298 297 299 297 296 294 292 291 290
311 311 312 312 313 314 312 312 316 312 307 307 312 315 313 314 319 320 318 316 318 323 322 318 320 321 324 326 325 322 317 315 316 317 320 319 317 317 320 322 317 313 315 316 319 319 316 318 312 307 311 305 298 302 305 306 310 313 315 314 308 306 310 316 317 314 310 312 316 314 311 312 315 313 304 301 302 302 300 297 296 295 295 294 294 292 291 291
312 312 312 312 313 314 312 313 315 310 305 306 310 314 315 314 314 316 320 319 316 321 321 316 316 319 323 325 325 323 318 317 318 318 321 319 316 318 318 319 316 312 314 314 315 317 315 315 314 305 307 304 299 304 309 304 302 309 312 307 307 311 312 312 313 316 315 314 316 316 313 313 315 316 311 307 306 306 302 296 294 294 294 293 293 292 291 290
312 313 312 312 312 313 313 314 312 306 304 306 307 312 315 314 313 315 321 321 317 319 319 316 313 313 320 323 325 322 316 317 319 317 319 317 316 318 316 316 316 311 311 313 314 317 313 315 317 305 301 304 303 307 315 309 301 302 304 301 305 311 313 312 312 315 318 317 316 317 316 315 315 319 319 314 311 309 303 296 293 294 294 293 292 291 290 290
312 312 312 311 311 312 312 312 309 306 306 308 308 310 312 314 314 315 317 317 316 316 317 319 316 312 317 318 319 321 317 317 318 316 317 316 315 316 312 314 318 312 309 312 314 316 313 314 317 308 301 305 308 308 313 313 307 305 305 305 304 304 308 311 309 310 316 316 315 316 317 315 314 318 318 315 313 309 303 298 295 293 293 292 291 291 290 290
312 313 313 311 311 312 312 311 311 310 311 311 309 308 309 312 314 313 314 313 314 314 315 321 320 315 315 315 315 318 317 317 316 314 316 315 314 315 312 313 319 313 309 312 313 314 315 315 316 312 307 308 310 308 307 309 310 308 308 308 306 304 307 311 310 309 310 312 314 317 316 314 311 314 315 314 313 307 302 299 295 293 293 292 291 291 290 290
312 313 312 311 311 311 312 313 314 314 314 314 312 310 309 311 313 313 314 312 312 313 313 317 319 316 315 314 316 318 317 320 318 313 315 316 312 312 313 313 315 312 311 314 313 312 315 316 315 315 313 309 306 304 304 305 306 306 307 307 307 306 308 312 314 312 309 308 310 313 314 314 310 312 313 311 309 306 301 297 296 295 293 291 291 291 290 289
314 312 309 309 311 311 312 316 316 316 315 314 313 313 312 311 312 313 314 313 312 313 313 314 314 314 314 313 315 316 315 318 318 314 317 317 313 312 314 314 313 311 312 314 312 310 313 315 314 315 317 311 304 303 304 302 302 305 307 306 305 306 307 310 312 313 313 311 309 311 313 313 308 308 307 303 302 302 298 295 296 296 293 291 291 290 290 289
314 312 309 308 310 311 313 315 315 316 316 314 313 314 312 312 312 312 312 312 314 315 313 312 313 313 313 314 314 314 314 314 315 315 315 316 315 314 315 315 312 311 312 313 313 311 313 316 316 314 317 316 310 308 308 305 302 305 307 305 305 305 306 309 309 310 312 311 310 311 314 313 308 304 301 298 298 300 296 293 295 295 293 291 290 290 289 289
314 313 311 308 308 310 313 314 313 313 314 314 314 314 313 313 313 312 311 310 312 315 314 314 315 314 314 315 313 313 314 312 313 315 314 315 316 313 311 312 310 310 314 315 312 311 314 318 316 314 316 316 313 314 316 311 304 303 305 304 304 305 306 308 309 309 310 310 310 311 312 313 309 305 302 299 298 299 296 294 293 293 292 291 290 290 289 288
315 315 313 310 308 309 311 312 311 311 312 313 313 313 312 313 313 312 312 310 310 312 314 316 317 314 315 315 313 314 314 312 313 315 315 318 319 311 305 305 307 309 313 313 311 313 318 318 314 313 315 313 312 312 314 311 307 307 307 305 304 305 305 307 309 310 311 311 310 310 311 311 311 308 306 304 302 299 296 296 294 292 292 291 290 290 289 288
315 316 315 312 311 311 311 312 312 311 311 312 312 313 313 312 311 312 312 312 311 311 312 314 314 314 315 315 314 314 314 313 313 313 315 319 319 309 302 300 302 305 308 309 309 314 319 316 312 312 313 312 312 311 311 311 311 310 309 306 304 304 304 306 308 309 310 311 311 311 310 311 311 310 309 309 307 301 296 296 295 293 292 291 290 290 289 288
315 317 316 314 313 313 312 313 313 312 312 310 310 311 312 311 311 312 311 312 312 312 311 313 314 313 314 314 314 314 313 314 314 313 313 316 316 311 306 303 301 303 306 305 305 311 316 314 313 313 312 311 311 311 312 313 311 311 311 310 307 304 303 304 306 307 309 310 311 311 311 311 311 310 309 310 309 305 300 297 295 293 292 290 289 289 289 288
315 317 317 314 314 314 312 312 313 313 312 311 310 310 310 310 310 310 311 313 313 312 311 311 312 312 312 313 313 314 313 313 314 313 313 314 313 313 313 310 304 302 304 305 304 308 312 313 312 312 312 312 311 311 311 311 310 311 311 311 310 308 305 303 304 305 306 308 309 309 310 310 310 309 309 308 309 308 303 297 295 293 291 291 289 289 289 288
316 317 316 314 315 315 313 311 312 313 313 311 311 311 309 309 309 308 311 313 313 312 312 311 311 311 312 312 313 312 312 312 313 313 314 314 314 313 314 315 310 302 301 304 305 305 308 313 314 312 313 313 312 311 311 310 310 311 310 310 311 310 308 306 305 304 305 306 307 307 308 309 308 308 308 307 307 307 302 298 295 292 291 290 289 288 289 288
316 315 315 315 315 315 314 312 312 313 314 312 312 311 310 310 309 308 309 310 311 312 311 311 311 311 311 313 313 312 312 312 312 312 312 313 314 313 313 315 314 307 302 303 304 305 307 311 314 312 313 314 312 312 312 310 309 309 310 310 310 310 311 310 308 307 306 307 307 307 308 308 307 307 307 306 306 306 304 300 295 292 291 290 289 289 289 289
315 314 313 315 316 316 315 314 312 313 314 312 312 311 311 310 310 309 309 310 310 310 311 312 312 311 311 313 312 311 311 311 311 313 314 314 314 314 314 313 312 310 305 302 303 305 307 309 312 312 313 313 312 311 311 310 310 311 311 311 310 309 310 309 310 309 308 308 309 309 309 308 308 308 308 307 306 304 303 300 296 293 291 289 289 289 289 289
Wind_Speed
12 12 13 13 14 15 16 17 18 19 20 21 21 22 22 23 22 21 19 18 16 13 7 1 3 4 4 5 3 5 7 6 7 10 9 5 6 7 8 9 9 10 11 10 9 4 3 5 6 12 7 3 3 2 2 2 2 5 3 3 1 2 2 4 7 7 4 4 5 3 4 8 4 3 4 4 9 6 6 6 4 6 7 8 13 18 17 16
11 12 12 12 13 14 15 16 17 18 19 20 21 21 22 22 23 22 19 17 16 14 9 3 3 6 5 4 1 5 7 7 6 7 8 6 7 8 8 9 8 9 10 9 10 7 4 5 6 8 6 2 3 2 2 1 3 4 3 3 2 5 3 3 6 5 3 5 5 3 4 6 7 7 5 3 2 3 7 4 3 6 6 7 12 15 15 15
11 12 12 12 12 13 13 14 16 17 18 19 20 21 21 22 22 22 21 18 15 14 11 6 1 6 7 4 1 5 8 7 4 3 6 6 7 8 9 9 8 8 9 7 7 7 4 3 3 4 4 3 2 3 3 2 1 2 4 3 4 6 3 3 4 6 4 4 5 3 3 4 5 7 4 5 6 4 5 5 4 5 6 7 8 12 14 13
10 11 12 12 13 13 13 14 14 15 16 17 18 20 20 21 22 22 22 20 15 13 12 8 3 4 8 6 2 5 8 5 1 2 4 5 5 7 8 8 8 9 9 8 7 6 5 2 3 4 4 2 4 3 3 3 1 1 3 3 6 4 3 4 5 5 3 4 6 4 4 4 4 4 4 9 7 4 7 10 10 13 14 11 9 11 13 13
9 10 11 12 12 13 13 13 14 14 15 16 17 18 19 20 21 22 22 21 16 12 11 9 5 2 7 8 4 5 7 3 2 2 2 2 4 6 8 9 9 9 8 9 8 5 6 5 5 6 4 2 5 4 3 4 2 1 2 2 5 4 3 5 5 4 3 4 4 4 5 5 4 3 6 12 9 5 7 9 11 14 16 14 12 12 12 12
9 10 10 11 12 13 13 14 14 14 15 15 16 17 18 19 20 22 22 22 17 11 11 9 5 3 4 8 7 4 4 0 3 1 2 1 3 6 6 9 10 9 9 10 11 7 7 7 6 5 4 3 4 3 2 5 3 1 3 1 3 4 3 3 3 4 5 6 5 6 3 4 5 2 5 11 8 5 3 6 10 12 15 16 14 12 10 10
8 9 10 11 12 12 13 14 14 14 15 15 16 17 18 19 20 21 22 23 18 10 10 8 5 1 1 4 5 2 3 3 4 1 3 2 2 5 5 7 9 8 7 10 13 7 5 8 6 3 3 3 2 2 2 5 4 3 2 2 2 3 3 4 3 5 6 7 6 4 2 4 6 3 4 7 4 3 1 10 13 14 16 16 12 10 9 10
8 9 10 11 12 12 13 14 14 15 15 16 16 17 18 19 20 21 23 23 17 10 9 8 4 2 3 2 2 2 2 4 3 2 3 3 3 5 5 5 7 7 5 10 11 4 4 7 3 2 2 1 1 2 4 5 5 3 2 2 1 2 4 3 1 2 5 5 2 4 2 4 6 4 5 6 2 3 5 12 13 13 13 11 9 8 9 10
9 9 10 11 11 12 13 14 15 15 16 16 17 17 18 19 20 21 23 23 15 9 8 7 3 3 4 2 4 2 4 2 1 3 4 3 3 4 4 5 6 6 6 9 10 5 3 2 1 2 2 1 1 2 3 4 3 2 2 2 1 1 3 2 1 4 5 3 2 4 2 5 2 3 3 5 4 5 8 11 10 11 10 8 8 8 9 9
9 10 10 11 11 12 13 14 15 16 17 17 18 18 18 19 20 21 24 21 13 9 8 6 3 3 5 2 5 0 4 0 1 3 3 3 3 3 3 5 5 6 6 7 8 8 4 4 3 3 4 2 0 2 2 1 1 3 2 4 4 3 3 2 5 6 4 2 3 4 4 5 1 1 3 4 6 6 10 10 8 10 9 9 7 7 10 10
11 11 11 12 12 13 14 15 16 16 17 18 18 19 18 19 19 21 24 19 11 9 7 6 2 4 5 4 5 3 3 0 2 2 2 2 2 1 2 4 5 5 5 6 7 7 5 6 6 4 2 0 1 2 1 1 1 1 1 4 6 6 5 2 3 5 2 1 3 6 0 3 2 2 5 7 9 8 11 10 8 9 8 8 8 8 9 11
12 13 13 13 14 14 14 15 16 17 18 18 19 19 19 20 19 21 23 16 10 9 7 5 2 6 4 3 3 5 4 1 2 1 1 1 1 1 4 5 5 5 4 5 5 6 5 5 7 4 0 2 1 2 0 1 1 1 4 4 8 8 6 3 1 3 2 2 5 6 2 3 4 6 4 9 11 8 10 10 8 8 8 8 8 7 7 11
12 13 14 15 15 15 16 16 17 17 18 19 20 20 20 20 20 22 21 12 8 9 7 4 3 7 5 1 4 5 4 3 2 1 1 2 0 1 4 4 3 5 5 5 5 6 5 3 5 4 2 4 1 1 1 3 2 1 4 3 5 8 6 4 2 0 2 3 4 3 3 6 9 8 3 10 12 11 10 10 9 8 7 7 7 6 7 11
12 13 14 15 15 16 17 17 17 18 19 19 20 21 21 20 21 23 18 8 6 9 6 2 3 6 4 2 3 5 5 5 3 1 1 2 0 1 3 4 3 4 5 6 6 6 5 3 4 4 2 3 1 1 3 6 3 1 2 2 3 3 5 6 1 2 2 1 3 4 4 8 9 8 6 11 12 14 12 11 10 9 8 7 7 7 7 9
12 13 14 15 16 16 17 17 18 18 19 20 20 21 21 21 23 22 14 6 6 8 5 3 5 6 2 3 2 5 6 5 4 2 1 2 1 0 2 2 2 4 5 5 5 5 3 2 4 4 1 1 4 3 3 5 4 3 2 3 3 1 5 9 4 4 4 2 3 5 5 8 9 7 8 12 11 14 13 12 12 10 10 9 7 8 7 8
13 13 13 14 15 16 17 17 18 19 20 20 21 22 21 22 22 18 10 6 6 8 3 4 6 5 1 2 1 3 6 5 4 3 3 2 2 1 2 1 3 3 4 4 4 3 3 4 4 2 0 2 5 4 3 4 4 4 1 2 4 2 4 7 4 2 2 1 1 3 5 7 6 3 5 11 12 12 11 11 12 11 11 10 8 8 7 7
15 14 13 13 14 16 16 17 18 19 20 20 21 22 21 20 18 13 6 5 5 5 1 3 5 4 0 1 1 2 4 6 6 4 4 3 2 3 1 2 3 4 3 2 2 1 3 4 1 1 2 3 3 4 4 4 3 4 3 1 4 4 3 5 5 4 2 2 3 3 5 11 9 0 5 10 11 12 11 12 13 12 10 9 8 8 8 8
18 16 14 13 14 15 16 16 17 18 20 20 20 23 21 16 12 7 2 3 3 2 2 1 3 2 3 2 2 2 2 4 5 4 4 4 3 2 1 2 3 4 4 3 1 1 2 3 2 1 4 4 3 5 1 4 3 3 3 2 4 3 4 5 5 3 2 1 5 3 5 15 15 4 6 10 11 13 13 12 11 11 10 9 9 9 8 8
20 18 16 15 14 14 15 15 16 17 19 19 19 20 15 9 6 2 2 0 1 0 1 2 3 3 3 3 2 2 2 3 3 4 4 4 3 1 2 3 4 3 2 1 1 2 1 3 4 2 3 4 2 4 6 7 6 5 5 4 4 5 6 6 6 5 1 3 7 7 8 13 16 11 7 9 10 13 13 10 8 9 9 9 9 9 9 9
20 20 18 16 15 15 14 14 15 16 17 18 20 16 7 4 4 3 3 3 3 3 2 5 4 2 2 1 1 3 2 2 3 3 4 4 1 1 2 3 5 3 2 2 2 2 4 3 2 4 6 7 7 6 6 5 5 3 3 4 6 5 7 7 4 5 1 2 8 8 8 12 16 16 10 9 10 11 11 10 10 10 11 11 11 11 11 10
19 20 19 17 15 14 14 14 14 14 14 15 16 10 2 2 2 3 5 7 8 3 4 6 3 3 3 1 2 3 1 1 2 3 5 3 2 3 1 3 3 0 2 1 1 3 5 3 5 8 9 7 6 6 5 4 4 2 3 4 5 5 8 9 4 5 1 3 7 5 6 11 14 16 12 7 10 13 15 15 14 14 13 12 13 13 11 8
17 18 18 17 14 13 13 13 12 12 11 11 9 4 4 3 2 1 1 5 9 2 2 4 2 4 4 2 3 3 3 0 4 3 5 2 3 3 2 3 4 4 2 1 1 4 4 3 9 8 5 5 3 4 5 3 3 2 2 2 5 4 4 8 4 5 2 2 6 6 5 10 13 18 16 9 11 13 16 18 17 16 16 14 14 14 12 10
17 16 17 16 14 12 11 11 11 11 8 7 5 4 3 2 3 1 1 2 7 3 1 2 2 3 2 2 5 6 4 3 3 4 5 4 2 2 3 4 3 2 1 3 4 1 1 5 7 3 6 7 2 2 5 2 1 4 3 2 5 4 1 4 4 5 4 2 6 8 7 8 11 17 18 10 11 12 13 16 15 13 15 16 16 14 15 15
17 16 16 16 13 10 9 10 9 7 5 4 3 3 3 3 4 1 0 1 5 5 2 3 3 4 3 2 6 8 3 3 3 2 4 5 3 2 3 5 3 2 3 5 7 5 6 5 3 6 5 6 3 1 3 3 3 4 6 6 6 6 5 6 3 5 6 4 4 7 8 6 7 13 14 5 4 9 9 10 12 11 12 11 11 13 14 14
16 15 16 16 12 8 7 8 5 2 2 1 1 2 3 3 3 2 1 2 3 5 2 2 1 3 5 4 5 6 2 1 3 2 2 4 5 2 1 3 3 3 5 4 5 4 7 4 4 6 3 4 5 3 4 6 3 5 5 9 9 8 7 5 4 5 5 4 4 6 6 6 3 6 11 4 3 8 5 7 13 12 10 9 11 13 12 11
16 15 15 14 10 8 6 4 3 2 2 1 1 1 2 3 3 2 2 4 3 5 1 1 1 4 6 4 2 4 2 2 3 1 3 2 3 2 1 1 1 3 5 4 2 3 3 1 4 6 5 4 4 4 6 7 3 4 4 6 7 4 2 2 3 3 1 4 2 3 2 8 4 4 11 8 7 11 6 8 13 11 10 12 13 12 11 12
15 14 14 12 9 7 4 2 2 2 1 1 1 1 1 2 3 2 2 4 4 3 3 1 1 4 5 2 1 4 2 3 1 2 3 2 1 2 2 3 1 2 3 3 1 3 3 2 4 5 5 5 5 5 6 8 6 3 4 4 5 4 2 3 2 0 3 3 4 3 4 7 7 6 10 7 7 14 11 10 12 10 12 14 13 12 13 14
13 12 13 13 9 6 4 3 3 1 1 2 1 1 2 3 2 1 3 1 5 1 2 1 1 3 2 1 2 3 2 1 3 1 2 3 2 3 1 5 6 4 2 5 4 5 3 4 4 5 4 4 6 6 7 10 5 5 4 4 5 5 3 4 3 2 2 3 6 5 6 5 9 5 3 2 4 13 13 14 14 12 14 14 12 12 13 13
12 11 12 12 9 7 6 5 3 2 2 1 1 1 3 3 1 4 3 3 4 1 1 0 2 1 1 2 2 2 1 2 2 3 2 3 2 3 2 5 6 4 1 3 5 5 1 4 7 7 5 6 5 3 6 9 5 3 4 4 4 5 4 3 2 1 2 2 9 7 7 4 8 4 3 1 3 10 12 12 12 12 13 12 11 12 12 11
14 12 11 10 8 6 5 5 5 3 2 1 2 3 4 3 3 3 3 5 2 0 1 1 2 1 4 4 2 2 1 1 0 1 3 1 3 5 2 2 5 4 1 4 3 4 3 1 3 4 4 6 4 2 1 4 3 2 5 4 4 4 4 3 2 3 3 3 10 9 11 8 7 3 5 4 5 8 8 8 8 8 10 10 11 12 13 11
15 11 9 10 8 6 3 2 2 2 2 3 5 5 3 2 3 4 7 6 2 1 1 1 2 3 5 5 2 1 2 2 1 2 1 1 2 4 2 1 3 3 3 5 4 5 5 1 2 2 2 4 6 4 2 2 2 4 4 4 3 4 4 4 4 4 1 5 7 5 8 9 8 6 5 6 7 7 7 8 8 9 10 11 12 12 12 11
14 9 9 11 10 9 6 3 2 2 2 6 7 4 4 0 1 5 5 4 2 3 3 3 2 3 5 3 2 3 3 2 2 4 4 3 3 3 3 4 4 0 4 3 3 5 3 4 3 2 1 5 6 4 2 5 4 4 4 4 3 4 4 3 3 0 3 7 3 1 3 5 11 10 8 10 12 11 10 8 8 9 10 11 12 12 11 10
14 13 12 12 10 11 10 7 3 2 3 8 6 5 6 3 6 6 4 3 3 2 2 2 1 3 6 3 3 3 2 2 4 3 2 3 3 5 5 4 6 3 4 3 1 3 4 4 1 1 2 4 8 5 2 2 1 5 4 3 3 1 1 4 4 2 5 6 2 3 3 4 9 8 11 16 17 14 8 7 8 7 9 12 13 12 10 10
15 18 16 13 14 14 12 11 7 3 5 7 5 5 4 6 6 5 7 7 3 1 2 2 3 3 4 3 4 4 3 3 4 5 2 2 2 4 5 5 4 3 2 2 1 2 4 6 3 6 2 4 9 7 5 5 4 4 4 4 5 5 3 4 4 4 6 6 3 3 2 4 4 3 7 12 11 8 4 5 8 6 8 9 9 10 10 10
15 19 19 18 18 18 15 13 8 5 6 6 5 3 7 8 4 3 6 6 2 1 1 2 4 4 2 3 3 3 4 4 2 5 4 4 4 5 4 6 7 5 5 3 2 2 3 8 5 2 1 4 6 3 4 6 3 2 3 4 3 5 5 3 3 4 2 6 5 3 4 6 4 4 6 5 5 4 4 5 5 6 7 7 7 9 10 10
13 17 19 18 19 18 16 14 11 8 7 6 4 7 10 7 5 5 5 5 4 4 4 2 3 4 4 3 3 3 2 2 2 3 3 3 4 5 4 5 8 10 8 5 3 2 2 6 4 1 1 2 2 2 1 3 3 2 3 3 4 4 5 2 3 1 4 3 6 3 6 7 4 6 6 4 4 5 4 5 5 6 6 8 9 10 11 11
13 14 13 13 16 17 16 14 13 10 5 5 7 11 7 6 6 6 4 4 4 6 7 2 3 5 6 3 4 5 2 1 2 3 3 3 3 6 6 5 6 14 13 6 3 4 3 4 3 2 1 1 0 1 2 2 3 5 3 5 3 2 4 3 1 3 2 4 6 4 9 11 4 5 3 3 4 10 7 6 6 5 6 9 10 10 11 11
12 8 6 11 16 16 15 15 14 9 3 4 11 11 4 6 6 5 5 4 3 5 6 5 6 6 7 5 4 5 5 4 4 4 3 3 4 5 7 4 6 11 11 5 2 3 2 3 4 1 2 3 3 1 1 3 2 5 3 3 2 3 2 2 2 2 2 4 7 5 8 11 8 6 5 3 8 12 9 7 7 8 10 11 10 10 11 10
12 5 4 11 17 19 18 16 13 7 2 6 13 10 4 5 5 5 7 6 4 4 5 7 6 4 5 6 5 5 6 7 6 5 4 4 5 5 6 5 4 4 4 6 5 2 3 2 4 1 1 2 3 1 4 2 1 2 1 2 0 3 4 3 3 3 3 3 7 6 7 12 10 6 7 9 11 11 10 8 10 12 13 12 10 10 11 11
10 3 3 9 19 24 23 16 9 6 6 10 11 6 3 3 5 8 10 8 4 4 5 6 5 5 5 6 4 4 5 6 6 5 5 5 4 5 6 6 5 4 1 4 3 2 3 2 4 2 3 1 2 5 8 9 6 3 2 2 2 2 1 1 2 2 3 4 6 3 6 16 11 5 9 12 10 11 11 11 12 13 13 12 10 11 12 12
7 4 3 11 23 28 23 12 6 6 7 9 8 5 2 2 5 8 9 9 7 3 3 5 7 8 6 5 4 4 5 5 6 6 5 5 5 5 8 9 9 8 3 4 2 4 4 3 4 2 2 5 5 3 4 8 7 7 7 7 7 6 3 2 4 4 3 5 6 3 5 17 9 5 7 9 8 9 11 12 11 11 13 12 11 12 13 12
6 6 3 12 29 33 20 6 6 6 6 8 6 3 3 3 3 5 6 7 6 4 1 3 8 8 6 5 5 6 6 4 6 7 5 7 11 9 7 9 11 11 8 4 3 3 3 2 3 4 5 6 5 3 1 2 2 3 5 5 6 6 6 6 7 5 2 5 5 4 3 15 7 6 6 6 6 8 10 11 11 10 11 11 11 11 11 10
6 5 3 15 34 31 13 5 6 5 6 6 5 4 2 2 2 3 5 7 6 5 4 5 6 7 7 5 5 6 7 6 7 8 5 7 11 9 7 11 11 10 7 3 2 2 2 2 3 5 4 2 3 4 3 4 3 3 6 5 6 8 9 8 6 3 2 5 4 4 7 16 5 4 3 2 2 5 7 9 11 9 8 9 11 11 10 10
4 3 2 16 35 27 9 7 8 7 9 8 7 8 5 3 5 6 7 9 8 6 8 8 5 6 7 6 7 8 7 6 7 8 9 9 6 5 9 14 14 11 7 5 5 5 3 3 3 4 5 4 4 3 3 3 1 5 6 5 8 12 9 3 1 1 4 7 7 4 13 17 4 3 2 2 0 5 6 7 9 8 7 9 10 10 10 9
3 3 1 13 26 18 6 5 5 7 11 11 11 11 8 6 7 11 11 12 9 6 6 6 4 6 6 4 5 8 8 10 10 6 8 8 3 2 5 11 14 12 5 2 5 8 5 4 5 6 8 8 7 5 4 3 3 3 4 7 12 14 14 8 2 4 10 9 9 9 18 19 11 2 2 2 4 6 7 7 6 7 8 9 9 10 10 10
4 4 2 6 11 9 6 4 3 3 7 9 8 9 12 13 10 9 12 12 10 5 3 3 3 5 5 5 7 9 12 14 11 5 5 5 3 3 1 3 8 6 1 2 5 7 3 3 8 11 12 13 14 10 5 6 4 5 7 12 15 16 17 12 5 8 11 7 8 17 23 22 23 18 7 4 9 9 8 8 7 8 8 8 10 11 11 10
5 6 6 6 4 6 8 7 6 5 5 7 6 7 14 18 12 6 9 10 9 7 5 5 5 7 8 9 10 11 12 13 12 11 9 5 2 3 2 1 3 3 1 1 4 5 3 5 13 15 16 18 18 15 7 8 6 9 10 13 15 15 15 13 12 17 13 4 10 24 24 20 29 29 16 11 13 10 8 10 10 10 10 10 10 10 11 10
7 5 7 10 6 7 11 12 13 11 10 10 8 6 10 15 14 10 7 5 7 10 9 6 10 17 17 14 11 10 11 11 13 15 12 7 4 2 0 0 2 4 3 1 2 3 4 9 15 14 15 19 19 18 11 6 8 10 11 17 16 13 15 17 22 24 17 11 19 27 23 23 30 28 17 16 16 11 11 13 11 10 9 9 9 10 12 12
8 3 4 10 9 10 14 17 17 16 16 14 9 9 14 18 19 13 6 4 5 11 13 13 18 23 20 15 11 10 13 14 14 14 12 10 9 6 4 4 2 2 5 5 3 2 4 10 13 9 11 18 19 18 11 8 12 12 17 26 21 13 17 21 22 23 22 22 26 27 26 30 32 24 19 21 17 9 9 10 8 9 9 10 11 13 13 14
8 4 4 6 9 11 11 12 14 13 16 15 12 15 18 21 21 12 7 9 10 10 14 21 24 18 15 16 15 17 22 21 16 13 11 12 12 9 7 7 4 2 4 6 3 2 5 8 7 4 6 16 18 13 8 9 12 14 22 31 25 15 18 21 20 19 20 23 27 28 27 28 27 22 21 22 15 7 8 8 9 9 10 12 13 13 14 15
15 5 5 3 6 9 8 8 11 11 11 13 15 18 18 20 22 14 7 11 15 12 12 21 25 14 9 15 20 25 28 23 18 17 15 14 13 10 8 7 8 7 6 6 4 3 6 4 1 3 5 14 13 5 4 5 5 13 27 34 27 18 18 20 18 17 19 22 25 24 21 20 23 22 20 16 10 10 12 11 10 9 11 13 14 15 16 15
17 5 6 5 6 8 8 6 9 11 11 13 17 19 16 16 17 12 7 9 16 17 14 17 20 13 8 16 26 30 28 23 20 17 10 9 10 9 6 6 10 11 8 7 4 4 6 5 3 4 6 12 6 4 5 3 1 12 22 24 22 20 20 20 19 20 23 22 19 18 17 20 22 20 17 15 10 11 12 11 10 10 11 14 15 16 17 16
Wind_Direction
26 24 23 22 21 20 19 18 17 17 16 15 17 21 22 21 21 23 21 19 19 24 33 48 191 184 173 152 115 20 20 28 34 51 59 26 2 7 3 4 8 7 4 359 12 39 20 16 358 359 27 90 10 324 12 34 69 55 80 85 84 177 163 171 178 192 162 169 211 223 157 136 159 203 163 62 48 75 71 47 38 44 47 83 118 130 138 144
22 21 21 20 17 17 16 15 14 15 14 13 13 15 17 18 17 18 19 18 13 15 21 19 200 197 192 179 217 352 353 346 357 33 37 17 12 12 5 5 6 6 5 5 15 25 22 348 335 4 37 58 346 333 20 32 75 82 111 84 216 202 185 193 176 184 161 157 193 207 162 159 171 170 154 106 119 127 91 50 30 67 69 97 124 136 138 135
20 19 18 18 15 13 11 11 11 10 10 10 10 10 11 14 13 12 13 15 12 9 10 13 247 217 212 215 275 350 344 341 345 2 6 9 19 17 6 357 360 11 12 17 20 21 25 312 325 34 49 53 352 345 18 16 44 135 112 76 239 212 205 234 182 193 217 167 166 190 170 171 180 161 140 137 163 189 152 156 143 146 162 150 153 149 141 133
19 16 15 15 14 11 8 7 5 5 5 5 6 5 5 8 9 7 6 8 9 5 3 5 342 239 222 228 252 334 344 4 308 295 352 4 24 24 11 359 6 15 13 26 30 26 35 46 69 57 61 44 340 4 24 344 8 125 105 146 215 177 168 220 194 200 207 156 161 169 138 147 184 163 139 140 147 236 223 196 179 173 173 166 173 162 150 140
16 13 11 11 10 8 6 3 360 359 358 358 360 360 360 1 2 2 360 1 3 1 360 358 349 291 232 227 237 320 358 35 262 290 351 352 28 21 13 5 7 9 9 25 26 31 39 48 64 43 49 42 350 20 360 320 48 51 22 162 188 139 159 227 205 185 143 122 128 139 151 155 159 147 159 161 169 230 228 206 189 168 164 163 164 161 154 146
9 7 6 5 5 4 2 0 357 355 352 352 352 353 354 354 356 357 354 354 356 356 355 354 353 337 241 225 238 315 29 129 264 313 312 296 22 12 10 1 4 5 1 17 19 30 36 30 50 45 33 41 24 36 323 315 22 28 335 12 212 185 174 212 200 185 146 129 150 171 181 129 127 162 189 185 198 266 261 167 160 153 154 153 149 152 151 150
2 1 360 358 358 357 357 356 353 351 350 347 347 347 348 348 351 352 350 350 351 352 348 351 355 352 146 209 235 358 56 252 272 283 281 266 346 1 6 349 357 357 351 18 21 30 49 33 49 83 50 38 39 23 318 318 19 76 302 316 237 236 202 195 179 179 157 156 189 178 124 139 162 175 176 207 242 331 44 122 131 138 143 145 143 148 151 150
354 353 353 352 350 350 350 349 349 348 346 344 344 343 344 344 345 348 347 345 348 350 340 344 352 174 131 122 173 13 340 257 263 266 277 262 293 342 356 346 353 352 21 40 30 41 71 47 59 111 53 20 95 5 342 345 15 77 257 268 170 270 269 255 155 176 171 165 163 99 128 208 194 162 156 213 243 85 117 115 124 132 135 144 146 150 150 147
345 344 346 345 343 344 344 344 344 342 342 341 340 339 341 340 341 345 344 342 346 345 332 337 326 206 192 119 92 5 284 242 281 284 277 268 288 325 351 2 0 4 49 54 41 55 81 75 165 161 119 181 145 346 351 9 350 210 239 300 282 278 288 272 183 222 207 182 133 114 279 280 208 159 183 207 170 136 124 117 129 134 138 152 150 156 155 151
335 336 339 338 339 340 338 339 338 338 338 337 336 336 338 337 336 341 341 339 341 334 325 325 307 208 206 161 88 325 261 204 291 286 284 276 294 314 1 13 10 19 50 58 50 60 95 155 169 144 127 125 32 346 359 87 191 210 238 285 282 300 295 200 192 228 219 219 189 160 268 300 32 171 242 205 167 152 128 126 143 141 151 162 158 170 165 163
327 330 331 332 335 335 334 335 333 334 333 333 334 332 334 334 333 337 338 336 334 329 321 319 290 188 184 136 119 210 235 80 283 290 292 283 312 329 40 23 21 34 43 61 72 77 102 150 145 122 102 98 358 360 327 206 181 208 327 301 302 330 317 232 199 229 193 214 169 129 253 310 24 280 228 180 162 159 142 142 159 155 164 168 168 179 174 178
322 323 325 327 331 331 333 332 330 331 329 330 330 329 332 330 329 333 335 331 326 325 316 321 242 188 160 101 160 216 219 215 268 306 294 302 342 42 54 30 31 47 37 64 98 97 100 139 122 100 102 142 96 357 249 196 57 24 39 338 312 353 345 309 273 233 177 205 173 122 4 270 218 245 213 155 154 154 146 153 168 170 175 176 178 182 185 192
317 319 320 323 326 327 330 328 328 328 326 328 327 327 329 327 327 329 330 324 317 323 313 313 221 184 149 140 224 207 199 205 218 170 353 330 305 67 41 29 49 63 54 79 112 105 97 127 111 110 137 115 126 280 90 37 23 339 47 42 325 359 339 307 2 270 152 183 176 142 295 253 227 238 173 148 153 147 155 172 177 181 183 183 186 184 195 199
310 314 314 318 321 323 326 325 326 324 324 325 324 325 326 325 324 324 324 307 304 328 316 264 184 165 148 247 233 189 198 199 196 181 17 337 270 187 23 29 67 77 67 79 101 98 93 118 101 93 104 102 117 303 26 7 16 11 17 48 14 2 293 294 339 145 169 213 127 133 261 260 252 251 178 162 162 158 172 185 182 188 189 187 190 189 200 202
300 307 311 313 315 319 321 322 322 321 322 321 322 324 323 324 321 320 319 279 289 328 315 203 175 147 115 287 240 195 214 213 208 214 336 352 23 248 345 19 119 94 75 74 88 95 90 106 92 80 291 29 51 51 19 347 4 33 348 318 347 327 279 300 288 179 186 317 69 140 241 272 270 262 184 167 171 172 179 187 186 192 190 190 195 194 199 206
293 299 304 309 311 315 317 319 320 319 319 319 322 322 321 323 318 316 309 256 284 318 306 188 183 150 97 284 244 213 222 222 221 226 260 316 19 2 353 90 132 98 91 82 86 95 66 66 73 70 346 45 61 71 38 6 345 2 44 252 281 265 297 316 310 257 195 282 338 183 239 274 279 292 170 169 179 185 187 191 193 195 194 192 196 198 198 204
290 294 299 305 307 309 313 316 318 318 319 320 323 322 323 323 314 313 302 241 289 313 175 168 176 154 279 250 222 266 226 215 218 225 252 277 338 360 21 117 103 92 97 87 100 96 32 50 54 330 47 52 72 80 31 353 311 324 15 242 255 242 265 300 305 327 47 157 245 230 236 259 266 58 149 182 184 189 197 199 199 197 195 196 196 200 203 200
288 291 296 302 304 306 309 314 317 319 319 321 325 323 321 317 308 306 249 221 328 12 134 126 122 123 288 241 198 237 189 189 208 225 244 254 291 346 44 107 103 95 58 31 31 29 356 26 62 33 21 8 34 80 80 262 225 249 280 282 288 265 227 248 271 298 43 210 245 229 246 263 269 252 176 195 191 197 209 205 201 199 195 199 200 201 205 201
288 289 294 300 304 304 307 313 317 321 323 324 329 327 321 318 312 276 192 182 5 121 206 233 157 148 245 243 206 167 151 178 207 231 226 225 264 348 90 81 88 98 61 3 322 21 48 34 39 10 322 297 256 140 183 212 188 207 234 227 259 275 257 237 238 265 289 276 260 238 243 264 273 269 214 197 196 205 217 211 202 203 201 202 203 204 205 203
287 288 291 297 303 305 308 314 317 322 328 332 336 339 339 350 352 334 322 303 234 197 233 237 216 222 252 267 158 150 185 224 228 224 194 196 219 117 109 45 40 54 88 186 261 10 82 57 322 250 245 240 227 192 171 175 168 185 211 224 241 243 272 267 240 280 267 220 264 243 237 260 269 272 250 197 197 212 218 217 211 204 204 203 203 206 203 205
289 288 288 292 300 305 307 314 318 323 332 338 342 350 49 96 22 323 319 300 270 234 244 247 236 264 262 216 172 160 134 280 268 213 179 189 122 143 237 26 65 184 286 215 255 2 64 66 255 234 222 216 208 179 143 134 155 184 207 241 269 223 255 276 271 304 294 182 267 247 229 258 263 271 264 180 186 216 212 213 215 206 205 206 204 205 203 206
292 289 288 288 294 303 306 314 319 320 331 340 351 47 111 112 123 246 330 302 290 272 222 261 266 269 264 221 205 161 112 355 297 249 181 148 100 184 254 58 138 203 308 56 61 359 22 259 249 236 193 142 103 128 135 149 167 175 177 214 276 238 263 290 300 332 352 166 269 270 248 261 264 270 265 208 194 221 213 211 214 204 203 206 203 202 199 201
292 290 291 287 291 300 305 314 317 319 335 355 22 87 108 118 139 164 90 281 291 300 161 225 198 227 264 258 202 156 143 196 249 247 178 135 113 192 161 115 153 177 53 154 166 165 283 251 243 201 138 132 96 73 121 116 181 184 177 189 264 263 278 284 298 337 325 235 267 286 274 259 260 266 266 237 208 226 222 217 219 208 206 207 203 200 197 197
295 296 295 290 292 298 307 314 310 313 336 16 47 98 137 162 158 163 342 276 289 292 240 206 185 191 199 196 174 155 153 197 191 220 173 147 151 163 159 151 133 150 226 186 160 184 240 244 156 111 112 144 168 322 146 182 279 243 203 203 242 259 231 231 281 334 322 299 307 319 300 261 239 252 264 276 236 244 233 222 227 221 215 208 203 208 204 197
299 302 299 295 293 296 310 314 300 300 333 26 97 113 137 176 182 156 24 20 300 298 279 216 208 200 184 139 154 166 147 218 214 212 160 148 158 149 165 155 134 200 214 159 148 221 260 253 130 121 98 126 161 234 207 184 250 294 230 211 226 245 247 261 325 354 347 323 348 11 328 276 245 250 260 279 274 255 226 214 229 222 209 201 204 209 204 201
296 301 301 299 295 298 309 306 289 330 331 240 165 146 147 185 198 184 60 47 296 276 235 199 195 177 175 139 159 165 122 286 270 117 89 105 163 144 139 166 65 212 187 143 161 237 262 356 92 132 136 132 167 242 237 171 145 301 246 201 206 214 235 284 354 16 317 272 293 57 324 273 274 246 257 263 263 259 237 221 233 222 207 207 210 205 195 201
292 293 299 301 302 308 307 266 276 304 299 221 153 163 186 171 187 215 41 24 289 238 154 255 309 153 175 190 163 148 179 264 17 61 65 72 23 84 149 213 140 214 183 127 290 252 168 90 61 105 120 139 184 243 229 159 135 249 227 140 127 122 152 174 112 217 238 276 288 176 169 271 273 238 256 271 266 268 260 241 237 222 215 216 211 201 197 201
284 282 292 297 299 304 287 268 279 267 186 183 144 158 178 166 176 90 68 308 275 189 126 270 102 125 159 17 63 110 222 267 112 259 357 61 28 66 172 225 180 193 182 134 233 260 155 162 186 155 131 180 210 226 193 159 161 243 204 125 103 110 141 153 136 246 279 8 293 228 148 262 274 238 272 338 253 265 264 249 238 222 218 217 208 202 202 200
273 272 283 291 293 290 273 266 267 225 176 161 153 173 157 155 124 68 89 237 267 55 71 66 122 104 37 58 25 49 3 357 127 251 344 61 34 66 165 214 155 161 181 136 224 256 168 202 193 155 163 213 217 227 183 167 195 228 142 103 62 72 80 84 108 168 41 9 266 244 154 223 274 220 165 46 238 251 257 252 242 224 218 211 202 203 202 195
264 260 273 281 277 272 265 262 257 240 224 206 175 157 139 110 73 86 209 237 260 270 96 118 176 165 102 117 311 331 169 263 257 359 18 56 10 34 125 184 97 114 338 353 277 261 320 317 171 149 187 197 154 100 152 161 175 123 88 53 16 30 49 44 60 79 51 267 259 240 177 188 277 245 175 195 216 222 236 253 250 224 211 202 200 202 198 191
263 251 264 269 255 241 242 264 236 195 185 173 155 132 109 53 77 152 223 243 261 251 153 177 207 129 130 152 198 209 170 238 228 137 126 152 17 34 94 161 70 69 359 334 300 305 341 359 224 246 180 132 101 84 42 26 71 92 72 48 5 336 14 18 359 49 68 253 262 247 180 187 242 244 212 234 239 223 220 240 242 218 205 200 200 202 195 189
264 248 253 255 245 234 233 229 144 122 146 153 141 103 94 83 217 187 231 288 283 217 178 190 213 160 158 160 194 192 176 210 196 167 163 158 173 185 188 190 171 21 316 261 277 329 307 226 254 308 193 142 113 89 16 354 32 90 89 71 46 333 353 344 311 62 226 248 254 115 139 216 243 243 243 251 256 249 231 232 242 221 203 200 201 201 191 182
258 247 241 236 240 245 241 238 213 149 148 149 133 63 87 188 233 194 200 255 232 215 146 121 103 140 144 143 231 207 168 211 192 169 164 143 183 232 246 217 172 194 255 216 314 327 293 293 301 184 261 177 151 154 201 260 149 146 147 125 128 108 348 279 270 269 268 266 237 121 114 263 271 257 233 232 243 252 245 234 243 225 201 203 201 194 185 182
254 247 244 243 251 252 241 238 235 192 161 147 112 71 126 217 237 191 205 226 233 343 42 99 85 95 140 178 235 199 172 229 174 147 168 129 167 237 238 230 185 150 146 144 196 201 244 293 223 177 228 183 177 185 164 143 145 175 162 136 150 153 180 236 238 244 282 299 250 163 144 237 256 251 221 229 247 268 287 255 245 234 209 202 193 182 181 186
254 248 251 246 243 244 235 233 235 206 179 145 106 145 200 216 206 181 214 218 224 338 29 43 87 109 231 266 271 222 202 239 145 128 177 172 184 208 194 204 197 151 123 161 236 168 205 264 253 214 258 168 183 203 126 117 118 199 136 114 175 181 172 210 231 209 287 320 276 205 211 227 233 260 228 230 275 296 316 281 243 228 211 183 182 185 184 187
244 247 249 234 229 235 228 224 229 218 186 138 143 209 217 211 179 183 199 175 178 159 123 29 86 141 247 276 267 245 214 229 151 146 208 209 209 210 202 215 195 176 167 168 206 182 199 272 284 5 327 148 167 239 139 141 177 166 140 183 218 179 137 155 274 333 66 298 273 247 259 272 314 286 228 178 260 268 288 282 235 216 201 182 193 194 186 189
230 240 241 221 221 226 219 217 221 215 180 138 197 219 212 204 189 182 180 153 151 135 130 188 200 180 216 236 226 214 177 210 179 170 211 225 227 198 199 245 197 185 192 177 205 214 194 268 270 125 200 260 244 240 8 14 133 131 178 217 199 132 102 110 274 336 38 254 269 278 273 279 296 284 272 106 250 252 244 245 236 219 202 201 207 197 188 189
222 235 242 225 219 213 209 213 206 190 126 161 222 235 208 200 203 177 168 152 124 117 140 203 214 186 191 206 227 195 171 193 178 171 202 220 245 188 164 219 204 193 203 174 194 243 147 252 282 102 204 294 8 76 310 337 87 129 198 224 134 151 183 112 153 238 214 240 269 281 285 276 242 238 276 230 223 238 234 220 219 214 209 211 208 194 188 184
211 240 269 229 219 212 204 200 189 167 134 201 224 238 206 203 227 202 180 162 132 138 177 216 216 192 182 180 194 186 182 192 172 175 202 192 234 209 168 201 193 187 209 155 172 224 112 203 276 339 267 310 21 158 193 220 47 79 289 315 25 175 177 163 167 191 181 218 267 292 310 284 251 205 231 230 214 220 217 205 211 214 211 211 201 189 188 187
193 237 257 201 206 204 191 180 174 175 206 217 222 227 190 200 232 224 205 189 184 183 196 212 202 206 208 184 188 186 188 202 180 184 215 195 220 235 207 200 158 143 27 90 149 189 103 191 245 324 336 258 195 207 193 184 172 171 218 235 232 183 141 232 212 169 174 215 254 276 288 279 270 171 203 226 211 207 204 200 211 216 214 210 198 191 190 189
177 234 230 183 188 182 168 164 188 196 215 232 233 226 203 201 218 230 224 209 216 218 163 176 196 204 195 182 202 184 176 204 190 190 228 213 215 236 213 187 151 142 114 77 161 194 154 188 204 175 232 216 218 238 205 196 184 180 197 203 200 187 156 244 254 217 189 224 231 171 261 275 275 146 197 218 193 198 202 200 208 214 213 206 197 197 193 189
188 220 199 175 178 169 156 174 212 198 221 233 235 233 220 224 220 226 224 212 223 241 184 197 209 205 193 184 192 180 175 199 196 198 231 219 212 223 205 172 150 149 151 143 194 189 132 135 199 217 222 221 245 299 312 253 248 224 224 197 186 186 172 198 234 225 179 237 235 105 271 269 257 142 193 204 184 201 198 195 206 212 211 202 195 198 194 188
206 198 137 170 174 165 158 215 210 205 234 234 249 265 243 250 248 220 209 206 212 213 221 231 203 201 219 198 176 188 192 203 200 194 221 233 222 219 180 157 151 151 155 157 162 135 103 126 213 258 295 353 333 337 6 23 28 260 245 193 181 206 202 204 218 180 157 229 199 102 258 260 257 117 189 177 170 222 204 196 208 209 204 198 195 195 191 187
200 174 81 173 178 176 180 209 200 212 225 223 239 244 240 247 234 222 208 204 204 194 213 228 204 202 224 196 189 206 192 203 219 204 210 229 233 214 177 166 165 170 184 196 172 168 192 172 178 250 293 317 330 345 335 331 277 233 239 201 207 222 216 209 77 138 244 223 162 162 251 255 263 65 18 17 278 243 231 213 212 207 198 196 196 194 189 184
171 181 102 180 187 193 213 208 186 207 216 216 228 233 238 253 233 220 216 214 210 191 208 233 207 195 206 174 198 217 198 212 231 220 215 226 251 268 197 186 189 187 198 230 160 162 185 178 175 209 234 246 250 233 214 223 209 225 243 218 217 218 211 211 204 217 240 225 174 203 248 260 268 250 90 6 266 248 245 234 227 222 209 198 195 192 188 184
172 190 172 178 194 210 239 228 175 195 209 206 222 227 225 236 241 218 212 221 222 203 218 262 193 184 191 174 201 224 220 223 231 233 223 211 224 280 288 208 215 208 357 19 146 150 152 184 204 213 218 229 243 240 184 135 158 201 218 219 217 215 212 212 213 228 235 231 217 233 246 264 273 264 247 251 249 240 235 231 225 222 213 202 198 194 189 187
195 211 188 168 183 212 225 222 200 204 196 180 193 215 216 226 240 225 204 208 202 195 227 252 197 191 202 191 202 225 226 225 230 235 229 200 211 292 21 87 234 243 333 37 164 146 113 223 224 222 227 235 247 249 195 145 201 220 215 224 220 213 210 204 213 227 228 224 249 247 248 260 267 266 264 263 258 245 226 223 221 217 209 199 195 190 185 184
200 222 194 177 182 201 207 209 202 200 201 193 199 225 228 227 227 219 206 186 174 187 208 230 214 213 213 198 199 225 228 228 233 232 228 216 204 223 332 212 213 201 168 145 238 163 145 236 235 223 235 244 250 253 231 197 241 245 242 246 232 203 202 208 218 227 224 225 247 255 259 260 262 267 273 272 267 251 228 225 219 212 202 188 185 184 183 184
204 249 204 185 196 203 203 206 199 197 207 208 214 233 238 236 228 216 179 149 196 203 203 218 224 220 215 202 197 219 224 224 229 224 217 220 214 199 221 246 229 176 164 174 235 175 162 240 240 218 240 250 248 251 245 239 258 262 261 258 247 212 208 216 223 229 229 235 248 259 265 263 264 271 276 273 268 249 229 226 208 197 190 182 187 188 187 190
207 232 197 194 215 212 208 204 191 196 208 206 217 231 232 236 235 221 171 180 208 206 199 220 232 223 208 208 212 226 228 224 227 224 203 206 215 207 215 222 180 137 190 186 193 216 206 236 237 187 239 256 252 249 241 237 249 259 262 261 254 236 229 231 230 231 235 242 249 254 260 263 268 271 269 271 270 247 229 219 202 197 189 185 192 191 190 193
219 214 163 185 234 211 206 201 183 196 208 198 214 229 228 234 234 225 211 209 214 211 197 216 232 230 202 210 219 231 235 230 231 233 213 203 211 209 211 207 163 152 193 187 156 190 204 224 244 134 224 257 258 241 219 231 247 258 260 258 253 242 237 239 236 228 230 239 246 251 254 259 266 268 269 270 257 230 229 218 202 200 192 189 194 193 194 195
221 227 174 202 238 201 197 206 189 198 209 202 213 223 224 234 234 223 233 231 220 222 213 211 225 226 208 217 223 230 236 235 237 240 223 205 219 224 221 194 172 167 172 172 170 179 182 200 210 163 221 259 263 110 114 91 3 260 255 250 245 240 237 242 244 237 231 231 239 246 246 250 259 267 273 270 245 221 226 216 199 198 197 196 198 196 196 193